Location: Paderno d�Adda
(45.6667°N, 9.4333°E)
Time: 13:57:51
(UTC+00:00)

NOSS 2-2 (E) - Pass Details

Date: 19 September 2020
Orbit: 468 x 1739 km, 63.3° (Epoch: 26 October)

Event Time Altitude Azimuth Distance (km) Brightness Sun altitude
Rises 18:26:08 0° 216° (SW) 2,501 7.0 -11.4°
Reaches altitude 10° 18:28:10 10° 216° (SW) 1,621 6.0 -11.7°
Maximum altitude 18:31:39 87° 128° (SE) 494 3.0 -12.3°
Drops below altitude 10° 18:35:34 10° 39° (NE) 1,822 5.7 -13.0°
Sets 18:37:59 0° 39° (NE) 2,851 6.7 -13.4°
